Showing default

OPS 5712 (P/L 153), 2874

Orbit data source: Space-Track

OPS 5712 (P/L 153), 2874 is an American payload satellite in LEO that was launched on Wed, 31 May 1967 UTC via a THOR SLV-2 AGENA D launch vehicle from the Air Force Western Test Range (AFWTR). Payload-class satellites include a variety of spacecraft equipped with specific instruments for various scientific and technological missions. These include communications satellites like Starlink; space stations such as the ISS; scientific satellites like the Hubble; Earth observation satellites from companies like Planet Labs, Umbra, and HawkEye 360; GPS; miniature CubeSats for education and research; and military/defense satellites.

Loading next visibility...
Identifier
2874, 1967-053H
Orbit
LEO
Country
Flag of USUS
Related business
Manufacturer
NRL
Mission
Operational spacecraft
Bus & Motor
NRL MULTI, Unknown motor
Mass
77 kg wet, 77 kg dry
Launch date (UTC)
1967-05-31 (58 years ago)
Launch vehicle
THOR SLV-2 AGENA D
Launch site
Air Force Western Test Range (AFWTR)
Object type
Payload
Rocket body
Debris
Shape & HBR
Unknown
Radar Cross Section
Medium (>0.1 m² and <1 m²)

Expand to show TLE details & history
Last TLE update: 1 day ago

TLE from 1 day ago
0 OPS 5712 (P/L 153)
1 02874U 67053H   25301.24902781  .00000098  00000-0  10888-3 0  9991
2 02874  69.9731 252.4265 0005672 159.9743 200.1586 13.96778485974394
Epoch: 2025-10-28T05:58Z
TLE epoch observation values (Epoch: 2025-10-28T05:58:36.002Z)
Latitude
-0.00009°
Longitude
125.93723°
Altitude
911.162 km
Speed
7.395 km/s
True Right ascension
16h 49m 42s
True Declination
0° 00' 00"
Sunlit
Object was in daylight at epoch
Visualization orbit readout
Latitude
Unknown
Longitude
Unknown
Altitude
Unknown
Speed
Unknown
Apparent Right ascension
Unknown
Apparent Declination
Unknown
Sunlit
N/A
Visualization observer readout
Local Sidereal Time
03:33:03
Azimuth
Unknown
Elevation
Unknown
Doppler factor
Unknown
Orbital elements
Apogee altitude
907.147 km
Perigee altitude
898.887 km
Semi-major axis
7,281.154 km
Eccentricity
0.00057
Inclination
69.9731°
RAAN
252.4265°
Arg. of periapsis
159.9743°
True anomaly
200.13622°
Mean anomaly
200.1586°
Eccentric anomaly
200.14741°
Mean motion
3.49336 °/min
Orbital period
103.05 mins
BSTAR
0.00010888
Loading maneuver chart data...
Computing Atmospheric mass density...
Loading historical data...
Loading historical data...
Loading historical data...
Loading historical data...
Loading historical data...
Loading historical data...
Loading historical data...

Documentation

Showing up to 5 results
|